Погода в Дружине

Россия / Республика Марий Эл     56°32′08″N   49°56′53″E
темп.,
°C
ветер,
м/с
пор.,
м/с
влажн.,
%
обл.,
%
осадки,
мм/ч
давл.,
гПа
погр.,
м
29 мая, вс
вс2900:00+8юз6139549 0.0 1004560
03:00+8зюз7139198 0.1 1005614
06:00+9зюз6129098 0.1 1008550
09:00+13зюз811685 0.1 10091154
12:00+16зюз9125424 0.1 10112204
15:00+17зюз8125577 0.3 10122466
18:00+13юз61168100 0.1 1013593
21:00+11юз51279100 0.1 1014433
30 мая, пн
пн3000:00+8юз4109410 0.0 1015227
03:00+7юз410965 0.0 1015219
06:00+10з48810 0.0 1016305
09:00+15з68590 0.0 10171345
12:00+17з794796 0.0 10172452
15:00+16з595649 0.1 10181107
18:00+16сз47639 0.1 1019281
21:00+12зюз357316 0.1 102174
31 мая, вт
вт3100:00+9зсз498778 0.0 1021143
03:00+8зсз36911 0.0 102289
06:00+12зсз357796 0.0 1023196
09:00+17зсз465776 0.0 1023997
12:00+19сз564712 0.0 10231972
15:00+19ссз565040 0.0 10231880
18:00+17ссв357136 0.0 1023241
21:00+12св22835 0.0 102411
1 июня, ср
ср100:00+11вюв018425 0.0 102410
03:00+10юв00861 0.0 102510
06:00+14юв11772 0.0 1025128
09:00+18ююв11600 0.0 1025784
12:00+20ююз225020 0.0 10241724
15:00+21ююз324980 0.0 10231698
18:00+20юз2365100 0.0 102393
21:00+15зюз3575100 0.1 102373
2 июня, чт
чт200:00+15ююв1180100 0.3 102311
03:00+14юв2284100 0.7 102329
06:00+14ююв378594 0.3 1023199
09:00+16ю4883100 0.3 1022376
12:00+18ю5776100 0.1 1022450
15:00+21ююз6769100 0.1 10211078
18:00+18ю578743 0.9 1020340
21:00+15ю4109685 1.6 1021231